Time,TemperatureF,DewpointF,PressureIn,WindDirection,WindDirectionDegrees,WindSpeedMPH,WindSpeedGustMPH,Humidity,HourlyPrecipIn,Conditions,Clouds,dailyrainin,SoftwareType,DateUTC
2013-11-12 00:09:00,18.4,14.0,30.77,NNW,327,4.0,-999.0,81,-99.99,,,0.00,weatherlink.com 1.10,2013-11-12 06:09:00,
2013-11-12 00:24:00,18.2,13.0,30.78,NNW,336,1.0,-999.0,81,-99.99,,,0.00,weatherlink.com 1.10,2013-11-12 06:24:00,
2013-11-12 00:39:00,18.0,13.0,30.77,NNW,336,3.0,-999.0,81,-99.99,,,0.00,weatherlink.com 1.10,2013-11-12 06:39:00,
2013-11-12 00:54:00,17.8,13.0,30.77,East,82,2.0,-999.0,81,-99.99,,,0.00,weatherlink.com 1.10,2013-11-12 06:54:00,
2013-11-12 01:09:00,17.5,13.0,30.78,NNW,347,0.0,-999.0,81,-99.99,,,0.00,weatherlink.com 1.10,2013-11-12 07:09:00,
2013-11-12 01:24:00,17.2,13.0,30.79,NW,319,6.0,-999.0,82,-99.99,,,0.00,weatherlink.com 1.10,2013-11-12 07:24:00,
2013-11-12 01:39:00,17.1,13.0,30.79,North,349,0.0,-999.0,82,-99.99,,,0.00,weatherlink.com 1.10,2013-11-12 07:39:00,
2013-11-12 01:54:00,16.8,12.0,30.80,North,351,3.0,-999.0,82,-99.99,,,0.00,weatherlink.com 1.10,2013-11-12 07:54:00,
2013-11-12 02:09:00,16.6,12.0,30.81,NNW,331,6.0,-999.0,82,-99.99,,,0.00,weatherlink.com 1.10,2013-11-12 08:09:00,
2013-11-12 02:24:00,16.4,12.0,30.82,NW,325,7.0,-999.0,83,-99.99,,,0.00,weatherlink.com 1.10,2013-11-12 08:24:00,
2013-11-12 02:40:00,16.1,12.0,30.82,NNW,333,0.0,-999.0,83,-99.99,,,0.00,weatherlink.com 1.10,2013-11-12 08:40:00,
2013-11-12 02:55:00,15.6,11.0,30.82,North,5,2.0,-999.0,83,-99.99,,,0.00,weatherlink.com 1.10,2013-11-12 08:55:00,
2013-11-12 03:10:00,15.3,11.0,30.82,NW,323,2.0,-999.0,84,-99.99,,,0.00,weatherlink.com 1.10,2013-11-12 09:10:00,
2013-11-12 03:25:00,15.2,11.0,30.83,WNW,302,2.0,-999.0,84,-99.99,,,0.00,weatherlink.com 1.10,2013-11-12 09:25:00,
2013-11-12 03:40:00,15.0,11.0,30.84,NW,318,2.0,-999.0,84,-99.99,,,0.00,weatherlink.com 1.10,2013-11-12 09:40:00,
2013-11-12 03:55:00,14.8,11.0,30.83,NW,326,0.0,-999.0,83,-99.99,,,0.00,weatherlink.com 1.10,2013-11-12 09:55:00,
2013-11-12 04:10:00,14.4,10.0,30.83,NW,326,0.0,-999.0,84,-99.99,,,0.00,weatherlink.com 1.10,2013-11-12 10:10:00,
2013-11-12 04:25:00,14.3,10.0,30.84,North,351,3.0,-999.0,84,-99.99,,,0.00,weatherlink.com 1.10,2013-11-12 10:25:00,
2013-11-12 04:40:00,14.0,10.0,30.85,NW,323,4.0,-999.0,84,-99.99,,,0.00,weatherlink.com 1.10,2013-11-12 10:40:00,
2013-11-12 04:55:00,13.7,10.0,30.86,WNW,289,3.0,-999.0,84,-99.99,,,0.00,weatherlink.com 1.10,2013-11-12 10:55:00,
2013-11-12 05:11:00,13.4,10.0,30.87,NW,323,3.0,-999.0,85,-99.99,,,0.00,weatherlink.com 1.10,2013-11-12 11:11:00,
2013-11-12 05:26:00,13.1,9.0,30.88,NNW,335,4.0,-999.0,85,-99.99,,,0.00,weatherlink.com 1.10,2013-11-12 11:26:00,
2013-11-12 05:41:00,13.1,9.0,30.88,NW,313,3.0,-999.0,85,-99.99,,,0.00,weatherlink.com 1.10,2013-11-12 11:41:00,
2013-11-12 05:56:00,12.9,10.0,30.88,WNW,302,5.0,-999.0,86,-99.99,,,0.00,weatherlink.com 1.10,2013-11-12 11:56:00,
2013-11-12 06:11:00,12.6,9.0,30.89,NW,317,0.0,-999.0,86,-99.99,,,0.00,weatherlink.com 1.10,2013-11-12 12:11:00,
2013-11-12 06:26:00,12.5,9.0,30.90,NW,311,2.0,-999.0,86,-99.99,,,0.00,weatherlink.com 1.10,2013-11-12 12:26:00,
2013-11-12 06:41:00,12.4,9.0,30.90,NNW,347,3.0,-999.0,86,-99.99,,,0.00,weatherlink.com 1.10,2013-11-12 12:41:00,
2013-11-12 06:56:00,12.1,9.0,30.91,NNW,333,0.0,-999.0,86,-99.99,,,0.00,weatherlink.com 1.10,2013-11-12 12:56:00,
2013-11-12 07:11:00,12.0,9.0,30.91,NNE,22,0.0,-999.0,87,-99.99,,,0.00,weatherlink.com 1.10,2013-11-12 13:11:00,
2013-11-12 07:26:00,12.4,9.0,30.92,NW,309,0.0,-999.0,86,-99.99,,,0.00,weatherlink.com 1.10,2013-11-12 13:26:00,
2013-11-12 07:42:00,12.8,9.0,30.93,NW,325,2.0,-999.0,86,-99.99,,,0.00,weatherlink.com 1.10,2013-11-12 13:42:00,
2013-11-12 07:57:00,13.4,10.0,30.93,NNW,341,3.0,-999.0,85,-99.99,,,0.00,weatherlink.com 1.10,2013-11-12 13:57:00,
2013-11-12 08:12:00,14.2,10.0,30.93,NW,311,1.0,-999.0,84,-99.99,,,0.00,weatherlink.com 1.10,2013-11-12 14:12:00,
2013-11-12 08:27:00,15.6,11.0,30.95,NNE,17,4.0,-999.0,83,-99.99,,,0.00,weatherlink.com 1.10,2013-11-12 14:27:00,
2013-11-12 08:42:00,16.1,11.0,30.95,NNW,342,4.0,-999.0,81,-99.99,,,0.00,weatherlink.com 1.10,2013-11-12 14:42:00,
2013-11-12 08:57:00,16.5,12.0,30.95,WNW,301,2.0,-999.0,81,-99.99,,,0.00,weatherlink.com 1.10,2013-11-12 14:57:00,
2013-11-12 09:12:00,17.3,12.0,30.95,NNE,15,1.0,-999.0,80,-99.99,,,0.00,weatherlink.com 1.10,2013-11-12 15:12:00,
2013-11-12 09:27:00,18.5,13.0,30.95,NW,312,4.0,-999.0,78,-99.99,,,0.00,weatherlink.com 1.10,2013-11-12 15:27:00,
2013-11-12 09:42:00,19.2,13.0,30.95,NW,323,3.0,-999.0,77,-99.99,,,0.00,weatherlink.com 1.10,2013-11-12 15:42:00,
2013-11-12 09:57:00,19.9,14.0,30.95,WNW,294,3.0,-999.0,77,-99.99,,,0.00,weatherlink.com 1.10,2013-11-12 15:57:00,
2013-11-12 10:12:00,20.6,14.0,30.94,West,259,3.0,-999.0,75,-99.99,,,0.00,weatherlink.com 1.10,2013-11-12 16:12:00,
2013-11-12 10:28:00,21.5,14.0,30.94,NW,315,5.0,-999.0,74,-99.99,,,0.00,weatherlink.com 1.10,2013-11-12 16:28:00,
2013-11-12 10:43:00,21.5,14.0,30.94,NW,325,2.0,-999.0,73,-99.99,,,0.00,weatherlink.com 1.10,2013-11-12 16:43:00,
2013-11-12 10:58:00,22.3,15.0,30.94,NW,314,1.0,-999.0,72,-99.99,,,0.00,weatherlink.com 1.10,2013-11-12 16:58:00,
2013-11-12 11:13:00,22.9,15.0,30.93,NNW,343,0.0,-999.0,72,-99.99,,,0.00,weatherlink.com 1.10,2013-11-12 17:13:00,
2013-11-12 11:28:00,23.3,15.0,30.93,SSE,164,4.0,-999.0,70,-99.99,,,0.00,weatherlink.com 1.10,2013-11-12 17:28:00,
2013-11-12 11:43:00,23.8,15.0,30.93,WSW,246,7.0,-999.0,69,-99.99,,,0.00,weatherlink.com 1.10,2013-11-12 17:43:00,
2013-11-12 11:58:00,24.6,16.0,30.92,NW,313,3.0,-999.0,69,-99.99,,,0.00,weatherlink.com 1.10,2013-11-12 17:58:00,
2013-11-12 12:13:00,24.8,15.0,30.90,WNW,288,3.0,-999.0,67,-99.99,,,0.00,weatherlink.com 1.10,2013-11-12 18:13:00,
2013-11-12 12:28:00,25.7,17.0,30.90,WSW,247,3.0,-999.0,69,-99.99,,,0.00,weatherlink.com 1.10,2013-11-12 18:28:00,
2013-11-12 12:43:00,25.4,17.0,30.89,WSW,246,8.0,-999.0,69,-99.99,,,0.00,weatherlink.com 1.10,2013-11-12 18:43:00,
2013-11-12 12:59:00,25.8,16.0,30.88,WSW,244,3.0,-999.0,67,-99.99,,,0.00,weatherlink.com 1.10,2013-11-12 18:59:00,
2013-11-12 13:14:00,26.5,15.0,30.88,WSW,241,3.0,-999.0,62,-99.99,,,0.00,weatherlink.com 1.10,2013-11-12 19:14:00,
2013-11-12 13:29:00,26.6,15.0,30.88,SW,223,5.0,-999.0,62,-99.99,,,0.00,weatherlink.com 1.10,2013-11-12 19:29:00,
2013-11-12 13:44:00,27.6,16.0,30.88,WSW,249,6.0,-999.0,61,-99.99,,,0.00,weatherlink.com 1.10,2013-11-12 19:44:00,
2013-11-12 13:59:00,28.1,16.0,30.88,WSW,238,3.0,-999.0,60,-99.99,,,0.00,weatherlink.com 1.10,2013-11-12 19:59:00,
2013-11-12 14:14:00,28.3,16.0,30.87,West,267,3.0,-999.0,60,-99.99,,,0.00,weatherlink.com 1.10,2013-11-12 20:14:00,
2013-11-12 14:29:00,28.6,15.0,30.87,WSW,243,1.0,-999.0,58,-99.99,,,0.00,weatherlink.com 1.10,2013-11-12 20:29:00,
2013-11-12 14:44:00,28.9,16.0,30.86,WSW,240,6.0,-999.0,60,-99.99,,,0.00,weatherlink.com 1.10,2013-11-12 20:44:00,
2013-11-12 14:59:00,29.3,16.0,30.86,WSW,251,6.0,-999.0,57,-99.99,,,0.00,weatherlink.com 1.10,2013-11-12 20:59:00,
2013-11-12 15:14:00,29.3,15.0,30.86,WSW,244,5.0,-999.0,56,-99.99,,,0.00,weatherlink.com 1.10,2013-11-12 21:14:00,
2013-11-12 15:30:00,29.6,15.0,30.85,WNW,286,5.0,-999.0,55,-99.99,,,0.00,weatherlink.com 1.10,2013-11-12 21:30:00,
2013-11-12 15:45:00,29.5,14.0,30.84,SW,236,7.0,-999.0,53,-99.99,,,0.00,weatherlink.com 1.10,2013-11-12 21:45:00,
2013-11-12 16:00:00,29.6,15.0,30.83,West,269,1.0,-999.0,54,-99.99,,,0.00,weatherlink.com 1.10,2013-11-12 22:00:00,
2013-11-12 16:15:00,29.4,14.0,30.83,WNW,286,1.0,-999.0,54,-99.99,,,0.00,weatherlink.com 1.10,2013-11-12 22:15:00,
2013-11-12 16:30:00,28.9,14.0,30.83,SW,235,5.0,-999.0,55,-99.99,,,0.00,weatherlink.com 1.10,2013-11-12 22:30:00,
2013-11-12 16:45:00,27.7,15.0,30.82,West,269,0.0,-999.0,58,-99.99,,,0.00,weatherlink.com 1.10,2013-11-12 22:45:00,
2013-11-12 17:00:00,27.2,15.0,30.82,WSW,253,1.0,-999.0,61,-99.99,,,0.00,weatherlink.com 1.10,2013-11-12 23:00:00,
2013-11-12 17:15:00,26.8,16.0,30.81,WSW,250,4.0,-999.0,63,-99.99,,,0.00,weatherlink.com 1.10,2013-11-12 23:15:00,
2013-11-12 17:30:00,26.6,17.0,30.80,WSW,250,3.0,-999.0,68,-99.99,,,0.00,weatherlink.com 1.10,2013-11-12 23:30:00,
2013-11-12 17:45:00,26.2,15.0,30.81,WSW,254,0.0,-999.0,63,-99.99,,,0.00,weatherlink.com 1.10,2013-11-12 23:45:00,
2013-11-12 18:00:00,26.0,15.0,30.81,WSW,254,0.0,-999.0,63,-99.99,,,0.00,weatherlink.com 1.10,2013-11-13 00:00:00,
2013-11-12 18:15:00,25.7,15.0,30.80,WSW,254,0.0,-999.0,64,-99.99,,,0.00,weatherlink.com 1.10,2013-11-13 00:15:00,
2013-11-12 18:30:00,25.2,15.0,30.80,WSW,254,0.0,-999.0,64,-99.99,,,0.00,weatherlink.com 1.10,2013-11-13 00:30:00,
2013-11-12 18:45:00,24.3,14.0,30.80,WSW,254,0.0,-999.0,66,-99.99,,,0.00,weatherlink.com 1.10,2013-11-13 00:45:00,
2013-11-12 19:00:00,23.9,15.0,30.80,WSW,254,0.0,-999.0,68,-99.99,,,0.00,weatherlink.com 1.10,2013-11-13 01:00:00,
2013-11-12 19:16:00,23.6,15.0,30.79,WSW,254,0.0,-999.0,69,-99.99,,,0.00,weatherlink.com 1.10,2013-11-13 01:16:00,
2013-11-12 19:31:00,23.7,15.0,30.79,WSW,254,0.0,-999.0,69,-99.99,,,0.00,weatherlink.com 1.10,2013-11-13 01:31:00,
2013-11-12 19:46:00,23.4,15.0,30.78,WSW,254,0.0,-999.0,70,-99.99,,,0.00,weatherlink.com 1.10,2013-11-13 01:46:00,
2013-11-12 20:01:00,23.3,16.0,30.78,WSW,254,0.0,-999.0,72,-99.99,,,0.00,weatherlink.com 1.10,2013-11-13 02:01:00,
2013-11-12 20:16:00,23.6,15.0,30.78,WSW,252,0.0,-999.0,70,-99.99,,,0.00,weatherlink.com 1.10,2013-11-13 02:16:00,
2013-11-12 20:31:00,23.8,15.0,30.78,WSW,252,0.0,-999.0,70,-99.99,,,0.00,weatherlink.com 1.10,2013-11-13 02:31:00,
2013-11-12 20:46:00,23.8,16.0,30.78,WSW,252,0.0,-999.0,71,-99.99,,,0.00,weatherlink.com 1.10,2013-11-13 02:46:00,
2013-11-12 21:01:00,23.9,16.0,30.78,WSW,252,1.0,-999.0,72,-99.99,,,0.00,weatherlink.com 1.10,2013-11-13 03:01:00,
2013-11-12 21:16:00,24.0,16.0,30.79,WSW,252,0.0,-999.0,72,-99.99,,,0.00,weatherlink.com 1.10,2013-11-13 03:16:00,
2013-11-12 21:31:00,23.4,16.0,30.79,WSW,252,0.0,-999.0,73,-99.99,,,0.00,weatherlink.com 1.10,2013-11-13 03:31:00,
2013-11-12 21:47:00,22.6,15.0,30.79,WSW,252,0.0,-999.0,74,-99.99,,,0.00,weatherlink.com 1.10,2013-11-13 03:47:00,
2013-11-12 22:01:00,22.3,16.0,30.78,WSW,252,0.0,-999.0,75,-99.99,,,0.00,weatherlink.com 1.10,2013-11-13 04:01:00,
2013-11-12 22:16:00,22.7,16.0,30.77,WSW,252,0.0,-999.0,75,-99.99,,,0.00,weatherlink.com 1.10,2013-11-13 04:16:00,
2013-11-12 22:32:00,23.7,17.0,30.76,SSW,206,2.0,-999.0,75,-99.99,,,0.00,weatherlink.com 1.10,2013-11-13 04:32:00,
2013-11-12 22:47:00,24.7,16.0,30.76,SW,221,3.0,-999.0,70,-99.99,,,0.00,weatherlink.com 1.10,2013-11-13 04:47:00,
2013-11-12 23:02:00,24.2,16.0,30.75,SSW,196,3.0,-999.0,70,-99.99,,,0.00,weatherlink.com 1.10,2013-11-13 05:02:00,
2013-11-12 23:17:00,24.7,17.0,30.72,SW,225,9.0,-999.0,71,-99.99,,,0.00,weatherlink.com 1.10,2013-11-13 05:17:00,
2013-11-12 23:32:00,24.8,15.0,30.72,SW,219,6.0,-999.0,66,-99.99,,,0.00,weatherlink.com 1.10,2013-11-13 05:32:00,
2013-11-12 23:47:00,25.5,15.0,30.71,SW,227,5.0,-999.0,64,-99.99,,,0.00,weatherlink.com 1.10,2013-11-13 05:47:00,